NGA100 DNMM-KJFK

Flight info

Callsign NGA100
Flight time N/A
Altitude 32000
Route POLTO1Q POLTO UL433 MONOS DCT NEPRO UN247 LUKDA DCT BKY DCT ERMIT UR979 BADIA/N0500F340 UR979 ANITI UR976 LUMPO/M084F340 DCT RUKAV DCT 23N030W 31N040W/M084F360 37N050W 41N060W DCT DOVEY/N0482F360 N20B SAILE DCT PLYMM PARCH3
Aircraft B77W/H-SDE1E2E3FGHIJ2J3J4J5M1RWXYZ/LB1D1

Departure

Time 2026-05-09 08:04
Airport Murtala Muhammed International Airport (DNMM)

Arrival

Time N/A
Airport John F. Kennedy International Airport (KJFK)
Time Latitude Longitude Altitude Speed Heading
2026-05-09 08:01 6.58477 3.31520 120 ft 33 kts 359°
2026-05-09 08:01 6.58655 3.31523 119 ft 20 kts
2026-05-09 08:01 6.58766 3.31514 120 ft 13 kts 336°
2026-05-09 08:01 6.58809 3.31443 119 ft 13 kts 275°
2026-05-09 08:02 6.58777 3.31363 120 ft 13 kts 222°
2026-05-09 08:02 6.58705 3.31312 122 ft 13 kts 198°
2026-05-09 08:02 6.58675 3.31310 121 ft 0 kts 179°
2026-05-09 08:03 6.58632 3.31311 122 ft 22 kts 179°
2026-05-09 08:03 6.58202 3.31316 124 ft 100 kts 179°
2026-05-09 08:03 6.57259 3.31328 119 ft 169 kts 179°
2026-05-09 08:03 6.55933 3.31337 156 ft 213 kts 181°
2026-05-09 08:04 6.54444 3.31340 727 ft 213 kts 182°
2026-05-09 08:04 6.53021 3.30989 1277 ft 214 kts 213°
2026-05-09 08:04 6.51966 3.29967 1968 ft 209 kts 233°
2026-05-09 08:04 6.51316 3.28641 2282 ft 221 kts 263°
2026-05-09 08:05 6.51351 3.27067 2546 ft 232 kts 271°
2026-05-09 08:05 6.51403 3.25398 2868 ft 245 kts 268°
2026-05-09 08:05 6.51410 3.23665 3239 ft 259 kts 268°
2026-05-09 08:05 6.51396 3.21920 3668 ft 269 kts 266°
2026-05-09 08:06 6.51312 3.20042 4195 ft 275 kts 265°
2026-05-09 08:06 6.51206 3.18107 4828 ft 279 kts 265°
2026-05-09 08:06 6.51098 3.16131 5448 ft 287 kts 265°
2026-05-09 08:06 6.50991 3.14096 5978 ft 294 kts 265°
2026-05-09 08:07 6.50884 3.12018 6509 ft 300 kts 266°
2026-05-09 08:07 6.50775 3.09896 7003 ft 306 kts 266°
2026-05-09 08:07 6.50670 3.07770 7497 ft 312 kts 267°
2026-05-09 08:07 6.50571 3.05573 8005 ft 317 kts 268°
2026-05-09 08:08 6.50472 3.03334 8440 ft 325 kts 268°
2026-05-09 08:08 6.50372 3.01044 8921 ft 331 kts 268°
2026-05-09 08:08 6.50278 2.98923 9401 ft 335 kts 269°
2026-05-09 08:08 6.50173 2.96568 9915 ft 339 kts 269°
2026-05-09 08:09 6.50068 2.94200 10319 ft 348 kts 269°
2026-05-09 08:09 6.49956 2.91679 10446 ft 368 kts 269°
2026-05-09 08:09 6.49838 2.89043 10602 ft 387 kts 269°
2026-05-09 08:09 6.49713 2.86277 10755 ft 405 kts 268°
2026-05-09 08:10 6.49626 2.84349 11017 ft 412 kts 268°
2026-05-09 08:10 6.49450 2.80496 11710 ft 420 kts 268°
2026-05-09 08:10 6.49316 2.77563 12435 ft 420 kts 268°
2026-05-09 08:10 6.49109 2.74643 13141 ft 418 kts 261°
2026-05-09 08:11 6.48303 2.71821 13680 ft 423 kts 248°
2026-05-09 08:11 6.47222 2.69049 14274 ft 425 kts 248°
2026-05-09 08:11 6.46127 2.66279 14882 ft 427 kts 248°
2026-05-09 08:11 6.45049 2.63487 15442 ft 430 kts 249°
2026-05-09 08:12 6.42940 2.57819 16573 ft 435 kts 249°
2026-05-09 08:12 6.41894 2.54953 17138 ft 438 kts 249°
2026-05-09 08:12 6.40845 2.52064 17681 ft 441 kts 249°
2026-05-09 08:13 6.39791 2.49162 18209 ft 444 kts 249°
2026-05-09 08:13 6.38729 2.46241 18660 ft 447 kts 249°
2026-05-09 08:13 6.37657 2.43299 19093 ft 450 kts 249°
2026-05-09 08:13 6.36607 2.40326 19518 ft 453 kts 252°
2026-05-09 08:14 6.35803 2.37253 19944 ft 457 kts 259°
2026-05-09 08:14 6.35291 2.34103 20369 ft 460 kts 261°
2026-05-09 08:14 6.34817 2.30913 20790 ft 463 kts 261°
2026-05-09 08:14 6.34341 2.27694 21201 ft 467 kts 261°
2026-05-09 08:15 6.33855 2.24461 21624 ft 470 kts 261°
2026-05-09 08:15 6.33357 2.21214 22032 ft 473 kts 261°
2026-05-09 08:15 6.32853 2.17973 22438 ft 476 kts 260°
2026-05-09 08:15 6.32336 2.14679 22846 ft 479 kts 260°
2026-05-09 08:16 6.31814 2.11367 23224 ft 482 kts 260°
2026-05-09 08:16 6.31286 2.08022 23603 ft 485 kts 260°
2026-05-09 08:16 6.30758 2.04669 23917 ft 488 kts 260°
2026-05-09 08:16 6.30225 2.01287 24236 ft 490 kts 260°
2026-05-09 08:17 6.29726 1.98121 24530 ft 492 kts 260°
2026-05-09 08:17 6.29189 1.94714 24847 ft 494 kts 261°
2026-05-09 08:17 6.28650 1.91294 25156 ft 497 kts 261°
2026-05-09 08:17 6.28111 1.87873 25437 ft 500 kts 261°
2026-05-09 08:18 6.27566 1.84419 25736 ft 502 kts 261°
2026-05-09 08:18 6.27238 1.80883 26005 ft 505 kts 270°
2026-05-09 08:18 6.27466 1.77364 26295 ft 506 kts 279°
2026-05-09 08:18 6.28137 1.73938 26597 ft 507 kts 287°
2026-05-09 08:19 6.29280 1.70585 26887 ft 507 kts 292°
2026-05-09 08:19 6.30548 1.67269 27156 ft 509 kts 292°
2026-05-09 08:19 6.31826 1.63968 27447 ft 511 kts 292°
2026-05-09 08:19 6.33108 1.60633 27718 ft 513 kts 292°
2026-05-09 08:20 6.34381 1.57277 27996 ft 515 kts 292°
2026-05-09 08:20 6.35649 1.53894 28268 ft 517 kts 292°
2026-05-09 08:20 6.36483 1.51652 28434 ft 518 kts 292°
2026-05-09 08:20 6.37742 1.48248 28667 ft 520 kts 292°
2026-05-09 08:21 6.39017 1.44795 28893 ft 522 kts 292°
2026-05-09 08:21 6.40272 1.41390 29134 ft 524 kts 292°
2026-05-09 08:21 6.41540 1.37953 29354 ft 525 kts 292°
2026-05-09 08:21 6.42806 1.34525 29580 ft 527 kts 292°
2026-05-09 08:22 6.44079 1.31076 29864 ft 526 kts 292°
2026-05-09 08:22 6.45352 1.27632 30174 ft 525 kts 292°
2026-05-09 08:22 6.46621 1.24195 30510 ft 522 kts 292°
2026-05-09 08:22 6.47878 1.20790 30903 ft 518 kts 292°
2026-05-09 08:23 6.49127 1.17407 31275 ft 515 kts 292°
2026-05-09 08:23 6.50371 1.14036 31592 ft 513 kts 292°
2026-05-09 08:23 6.51605 1.10693 31852 ft 513 kts 292°
2026-05-09 08:23 6.52850 1.07321 31905 ft 516 kts 292°
2026-05-09 08:24 6.55330 1.00597 31953 ft 512 kts 292°
2026-05-09 08:24 6.57743 0.94050 31970 ft 510 kts 292°
2026-05-09 08:25 6.60188 0.87417 31963 ft 509 kts 292°
2026-05-09 08:25 6.62652 0.80726 31967 ft 509 kts 292°
2026-05-09 08:26 6.65115 0.74036 31972 ft 511 kts 292°
2026-05-09 08:26 6.67580 0.67335 31975 ft 512 kts 292°
2026-05-09 08:27 6.69834 0.60527 31961 ft 515 kts 285°
2026-05-09 08:27 6.71472 0.53509 31959 ft 516 kts 284°
2026-05-09 08:28 6.73088 0.46462 31974 ft 516 kts 284°
2026-05-09 08:28 6.74742 0.39441 31964 ft 516 kts 285°
2026-05-09 08:29 6.76415 0.32412 31951 ft 516 kts 285°
2026-05-09 08:29 6.78081 0.25392 31964 ft 516 kts 285°
2026-05-09 08:30 6.79748 0.18358 31966 ft 516 kts 285°
2026-05-09 08:30 6.81404 0.11330 31959 ft 516 kts 285°
2026-05-09 08:31 6.83047 0.04342 31947 ft 516 kts 285°
2026-05-09 08:31 6.84647 -0.02465 31962 ft 515 kts 284°
2026-05-09 08:32 6.86295 -0.09474 31955 ft 514 kts 284°
2026-05-09 08:33 6.88783 -0.19906 31958 ft 512 kts 285°
2026-05-09 08:33 6.90451 -0.26868 31958 ft 511 kts 285°
2026-05-09 08:34 6.92110 -0.33826 31959 ft 511 kts 285°
2026-05-09 08:34 6.93768 -0.40788 31960 ft 511 kts 285°
2026-05-09 08:35 6.95406 -0.47755 31964 ft 512 kts 284°
2026-05-09 08:35 6.97039 -0.54737 31965 ft 512 kts 284°
2026-05-09 08:36 6.98677 -0.61732 31968 ft 513 kts 284°
2026-05-09 08:36 7.00312 -0.68713 31967 ft 513 kts 284°
2026-05-09 08:37 7.01950 -0.75713 31963 ft 513 kts 284°
2026-05-09 08:37 7.03588 -0.82712 31973 ft 513 kts 284°
2026-05-09 08:38 7.05222 -0.89703 31971 ft 512 kts 284°
2026-05-09 08:38 7.06851 -0.96678 31966 ft 512 kts 284°
2026-05-09 08:39 7.08434 -1.03457 31973 ft 512 kts 284°
2026-05-09 08:39 7.10060 -1.10430 31984 ft 511 kts 284°
2026-05-09 08:40 7.11674 -1.17352 31979 ft 511 kts 284°
2026-05-09 08:40 7.13297 -1.24321 31989 ft 511 kts 284°
2026-05-09 08:41 7.14919 -1.31286 31985 ft 511 kts 284°
2026-05-09 08:41 7.16539 -1.38251 31991 ft 511 kts 284°
2026-05-09 08:42 7.18159 -1.45222 31989 ft 511 kts 284°
2026-05-09 08:42 7.19779 -1.52195 31989 ft 512 kts 284°
2026-05-09 08:43 7.21400 -1.59180 31997 ft 512 kts 284°
2026-05-09 08:43 7.23017 -1.66154 31997 ft 512 kts 284°
2026-05-09 08:44 7.24635 -1.73133 32003 ft 512 kts 284°
2026-05-09 08:44 7.26250 -1.80106 32006 ft 512 kts 284°
2026-05-09 08:45 7.27866 -1.87088 32004 ft 512 kts 284°
2026-05-09 08:45 7.29484 -1.94085 31992 ft 512 kts 284°
2026-05-09 08:46 7.31052 -2.00871 32008 ft 512 kts 284°
2026-05-09 08:46 7.32669 -2.07873 32006 ft 513 kts 284°
2026-05-09 08:47 7.34286 -2.14882 32006 ft 513 kts 284°
2026-05-09 08:47 7.35901 -2.21890 32005 ft 514 kts 284°
2026-05-09 08:48 7.37511 -2.28902 32002 ft 514 kts 283°
2026-05-09 08:48 7.38558 -2.35975 32012 ft 513 kts 277°
2026-05-09 08:49 7.39372 -2.43125 32003 ft 513 kts 277°
2026-05-09 08:49 7.40205 -2.50258 32001 ft 513 kts 277°
2026-05-09 08:50 7.41069 -2.57398 31999 ft 512 kts 277°
2026-05-09 08:50 7.41938 -2.64522 32001 ft 512 kts 277°
2026-05-09 08:51 7.42803 -2.71639 32008 ft 512 kts 277°
2026-05-09 08:51 7.43665 -2.78761 32005 ft 512 kts 277°
2026-05-09 08:52 7.44526 -2.85890 32000 ft 512 kts 277°
2026-05-09 08:52 7.45388 -2.93014 32002 ft 512 kts 277°
2026-05-09 08:53 7.46336 -3.00067 32004 ft 512 kts 278°
2026-05-09 08:53 7.47319 -3.06960 32001 ft 512 kts 278°
2026-05-09 08:54 7.48323 -3.14064 32002 ft 512 kts 278°
2026-05-09 08:54 7.49313 -3.21173 32000 ft 512 kts 278°
2026-05-09 08:55 7.50296 -3.28286 32001 ft 513 kts 278°
2026-05-09 08:55 7.51279 -3.35409 31999 ft 513 kts 278°
2026-05-09 08:56 7.52261 -3.42527 31999 ft 513 kts 278°
2026-05-09 08:56 7.53244 -3.49655 32001 ft 513 kts 278°
2026-05-09 08:57 7.54226 -3.56782 31999 ft 513 kts 278°
2026-05-09 08:57 7.55204 -3.63896 31999 ft 512 kts 278°
2026-05-09 08:58 7.56180 -3.70997 32000 ft 512 kts 278°
2026-05-09 08:58 7.57158 -3.78124 32003 ft 512 kts 278°
2026-05-09 08:59 7.57968 -3.84029 31984 ft 513 kts 277°
2026-05-09 08:59 7.58943 -3.91152 32008 ft 514 kts 277°
2026-05-09 09:00 7.59920 -3.98298 32004 ft 516 kts 277°
2026-05-09 09:00 7.60869 -4.05247 32002 ft 517 kts 277°
2026-05-09 09:01 7.61849 -4.12436 32001 ft 518 kts 277°
2026-05-09 09:01 7.62829 -4.19623 31999 ft 518 kts 277°
2026-05-09 09:02 7.63808 -4.26819 31996 ft 518 kts 277°
2026-05-09 09:02 7.64784 -4.34001 31999 ft 517 kts 277°
2026-05-09 09:03 7.65757 -4.41173 31994 ft 516 kts 277°
2026-05-09 09:03 7.66729 -4.48343 31998 ft 516 kts 277°
2026-05-09 09:04 7.67698 -4.55503 31998 ft 515 kts 277°
2026-05-09 09:04 7.68667 -4.62663 31986 ft 515 kts 277°
2026-05-09 09:05 7.69634 -4.69824 31995 ft 516 kts 277°
2026-05-09 09:05 7.70601 -4.76997 32000 ft 517 kts 277°
2026-05-09 09:06 7.71569 -4.84183 31996 ft 517 kts 277°
2026-05-09 09:06 7.72536 -4.91376 32002 ft 518 kts 277°
2026-05-09 09:07 7.73503 -4.98570 32007 ft 517 kts 277°
2026-05-09 09:07 7.74435 -5.05521 31989 ft 517 kts 277°
2026-05-09 09:08 7.75640 -5.12661 32012 ft 516 kts 281°
2026-05-09 09:08 7.77065 -5.19740 31999 ft 515 kts 281°
2026-05-09 09:09 7.78501 -5.26820 32000 ft 515 kts 281°
2026-05-09 09:09 7.79909 -5.33899 32003 ft 515 kts 281°
2026-05-09 09:10 7.81303 -5.40988 32014 ft 515 kts 281°
2026-05-09 09:10 7.82691 -5.48072 32003 ft 515 kts 281°
2026-05-09 09:11 7.84082 -5.55164 32011 ft 516 kts 281°
2026-05-09 09:11 7.85474 -5.62263 32000 ft 516 kts 281°
2026-05-09 09:12 7.86866 -5.69367 32002 ft 516 kts 281°
2026-05-09 09:12 7.88259 -5.76485 32012 ft 516 kts 281°
2026-05-09 09:13 7.89639 -5.83539 31997 ft 517 kts 281°
2026-05-09 09:13 7.91030 -5.90657 32006 ft 517 kts 281°
2026-05-09 09:14 7.92418 -5.97770 32018 ft 517 kts 281°
2026-05-09 09:14 7.93766 -6.04679 32000 ft 517 kts 281°
2026-05-09 09:15 7.95152 -6.11793 32021 ft 516 kts 281°
2026-05-09 09:15 7.96532 -6.18885 32001 ft 515 kts 281°
2026-05-09 09:16 7.97913 -6.25982 32015 ft 514 kts 281°
2026-05-09 09:16 7.99976 -6.36603 32009 ft 514 kts 281°
2026-05-09 09:17 8.01345 -6.43662 32016 ft 514 kts 281°
2026-05-09 09:17 8.02710 -6.50702 32015 ft 514 kts 281°
2026-05-09 09:18 8.04078 -6.57770 31997 ft 514 kts 281°
2026-05-09 09:18 8.05448 -6.64850 32011 ft 514 kts 281°
2026-05-09 09:19 8.06817 -6.71935 32016 ft 514 kts 281°
2026-05-09 09:19 8.08188 -6.79031 32006 ft 514 kts 281°
2026-05-09 09:20 8.09554 -6.86116 32014 ft 515 kts 281°
2026-05-09 09:20 8.10922 -6.93215 32016 ft 515 kts 281°
2026-05-09 09:21 8.12257 -7.00147 32008 ft 515 kts 281°
2026-05-09 09:21 8.13613 -7.07200 32006 ft 516 kts 281°
2026-05-09 09:22 8.14980 -7.14309 32025 ft 516 kts 281°
2026-05-09 09:22 8.16346 -7.21425 32010 ft 516 kts 281°
2026-05-09 09:23 8.17709 -7.28536 32024 ft 516 kts 281°
2026-05-09 09:23 8.19073 -7.35650 32032 ft 515 kts 281°
2026-05-09 09:24 8.20431 -7.42745 32020 ft 515 kts 281°
2026-05-09 09:24 8.21788 -7.49841 32016 ft 514 kts 281°
2026-05-09 09:25 8.23143 -7.56934 32032 ft 514 kts 281°
2026-05-09 09:25 8.24494 -7.64017 32040 ft 513 kts 281°
2026-05-09 09:26 8.25842 -7.71086 32034 ft 512 kts 281°
2026-05-09 09:26 8.27186 -7.78140 32025 ft 511 kts 281°
2026-05-09 09:27 8.28527 -7.85190 32025 ft 510 kts 281°
2026-05-09 09:27 8.29864 -7.92224 32040 ft 509 kts 281°
2026-05-09 09:28 8.31188 -7.99196 32039 ft 509 kts 281°
2026-05-09 09:28 8.32479 -8.05999 32032 ft 509 kts 281°
2026-05-09 09:29 8.33809 -8.13016 32047 ft 509 kts 281°
2026-05-09 09:29 8.35140 -8.20047 32034 ft 510 kts 281°
2026-05-09 09:30 8.36878 -8.26983 32032 ft 510 kts 291°
2026-05-09 09:30 8.40028 -8.33373 32049 ft 509 kts 304°
2026-05-09 09:31 8.44083 -8.39252 32036 ft 509 kts 306°
2026-05-09 09:32 8.50210 -8.48022 32036 ft 509 kts 306°
2026-05-09 09:32 8.54253 -8.53907 32060 ft 509 kts 305°
2026-05-09 09:33 8.58253 -8.59763 32044 ft 509 kts 305°
2026-05-09 09:33 8.62280 -8.65658 32058 ft 509 kts 305°
2026-05-09 09:34 8.66301 -8.71542 32043 ft 507 kts 305°
2026-05-09 09:34 8.70311 -8.77412 32058 ft 507 kts 305°
2026-05-09 09:36 8.86141 -9.00607 32058 ft 507 kts 305°
2026-05-09 09:37 8.90142 -9.06476 32062 ft 507 kts 305°
2026-05-09 09:37 8.94143 -9.12348 32049 ft 508 kts 306°
2026-05-09 09:38 8.98150 -9.18233 32062 ft 507 kts 305°
2026-05-09 09:38 9.01494 -9.23147 32058 ft 507 kts 306°
2026-05-09 09:39 9.05461 -9.28967 32070 ft 506 kts 306°
2026-05-09 09:39 9.09570 -9.34741 32069 ft 505 kts 307°
2026-05-09 09:40 9.13739 -9.40471 32070 ft 505 kts 307°
2026-05-09 09:40 9.17881 -9.46193 32070 ft 504 kts 307°
2026-05-09 09:41 9.22004 -9.51920 32056 ft 503 kts 307°
2026-05-09 09:41 9.26120 -9.57649 32072 ft 502 kts 307°
2026-05-09 09:42 9.30225 -9.63366 32068 ft 501 kts 307°
2026-05-09 09:42 9.34317 -9.69065 32071 ft 500 kts 307°
2026-05-09 09:43 9.38401 -9.74756 32055 ft 499 kts 307°
2026-05-09 09:43 9.42488 -9.80454 32055 ft 499 kts 307°
2026-05-09 09:44 9.46569 -9.86145 32056 ft 500 kts 307°
2026-05-09 09:44 9.50673 -9.91873 32076 ft 503 kts 307°
2026-05-09 09:45 9.54797 -9.97630 32078 ft 507 kts 307°
2026-05-09 09:45 9.58777 -10.03190 32077 ft 509 kts 307°
2026-05-09 09:46 9.62940 -10.09008 32076 ft 510 kts 307°
2026-05-09 09:46 9.67100 -10.14830 32063 ft 509 kts 307°
2026-05-09 09:47 9.71251 -10.20644 32081 ft 508 kts 307°
2026-05-09 09:47 9.75388 -10.26443 32083 ft 508 kts 307°
2026-05-09 09:48 9.79541 -10.32266 32070 ft 509 kts 307°
2026-05-09 09:48 9.83685 -10.38079 32064 ft 509 kts 307°
2026-05-09 09:49 9.87836 -10.43905 32065 ft 510 kts 307°
2026-05-09 09:49 9.91995 -10.49745 32083 ft 511 kts 307°
2026-05-09 09:50 9.96152 -10.55586 32065 ft 511 kts 307°
2026-05-09 09:50 10.00304 -10.61422 32063 ft 513 kts 307°
2026-05-09 09:51 10.04469 -10.67280 32088 ft 515 kts 306°
2026-05-09 09:51 10.08667 -10.73192 32070 ft 517 kts 306°
2026-05-09 09:52 10.12548 -10.79348 32061 ft 518 kts 302°
2026-05-09 09:52 10.16277 -10.85587 32060 ft 518 kts 302°
2026-05-09 09:53 10.20039 -10.91823 32062 ft 518 kts 302°
2026-05-09 09:53 10.23815 -10.98042 32065 ft 516 kts 302°
2026-05-09 09:54 10.27777 -11.03813 32083 ft 514 kts 308°
2026-05-09 09:54 10.32184 -11.09534 32057 ft 513 kts 308°
2026-05-09 09:55 10.36577 -11.15242 32070 ft 513 kts 308°
2026-05-09 09:55 10.40945 -11.20980 32068 ft 513 kts 307°
2026-05-09 09:56 10.45294 -11.26721 32064 ft 512 kts 307°
2026-05-09 09:56 10.49628 -11.32443 32066 ft 510 kts 307°
2026-05-09 09:57 10.53952 -11.38151 32064 ft 509 kts 307°
2026-05-09 09:57 10.58274 -11.43859 32071 ft 509 kts 307°
2026-05-09 09:58 10.62581 -11.49552 32070 ft 509 kts 307°
2026-05-09 09:58 10.66895 -11.55256 32066 ft 509 kts 307°
2026-05-09 09:59 10.71104 -11.61040 32066 ft 509 kts 305°
2026-05-09 09:59 10.75242 -11.66880 32063 ft 509 kts 305°
2026-05-09 10:00 10.79390 -11.72720 32056 ft 509 kts 305°
2026-05-09 10:00 10.83563 -11.78565 32082 ft 510 kts 305°
2026-05-09 10:01 10.87708 -11.84363 32062 ft 510 kts 305°
2026-05-09 10:01 10.91876 -11.90196 32065 ft 510 kts 305°
2026-05-09 10:02 10.96045 -11.96037 32065 ft 510 kts 305°
2026-05-09 10:02 11.00090 -12.01707 32067 ft 510 kts 305°
2026-05-09 10:03 11.04262 -12.07559 32068 ft 510 kts 305°
2026-05-09 10:03 11.08427 -12.13403 32070 ft 510 kts 304°
2026-05-09 10:04 11.12589 -12.19249 32073 ft 509 kts 304°
2026-05-09 10:04 11.16742 -12.25084 32068 ft 508 kts 304°
2026-05-09 10:05 11.20888 -12.30914 32071 ft 508 kts 304°
2026-05-09 10:05 11.25026 -12.36733 32063 ft 507 kts 304°
2026-05-09 10:06 11.29094 -12.42611 32086 ft 507 kts 303°
2026-05-09 10:06 11.33097 -12.48515 32059 ft 506 kts 303°
2026-05-09 10:07 11.37105 -12.54420 32049 ft 506 kts 303°
2026-05-09 10:07 11.41117 -12.60310 32068 ft 506 kts 303°
2026-05-09 10:08 11.45131 -12.66197 32060 ft 505 kts 303°
2026-05-09 10:08 11.49132 -12.72069 32049 ft 504 kts 303°
2026-05-09 10:09 11.53099 -12.77896 32028 ft 503 kts 303°
2026-05-09 10:09 11.57084 -12.83752 32026 ft 502 kts 303°
2026-05-09 10:10 11.61066 -12.89609 32029 ft 502 kts 303°
2026-05-09 10:10 11.65044 -12.95463 32009 ft 502 kts 303°
2026-05-09 10:11 11.68912 -13.01158 32024 ft 502 kts 303°
2026-05-09 10:11 11.72895 -13.07028 32018 ft 503 kts 303°
2026-05-09 10:12 11.76875 -13.12895 32000 ft 502 kts 303°
2026-05-09 10:12 11.81066 -13.18592 32017 ft 501 kts 307°
2026-05-09 10:13 11.85483 -13.24092 31999 ft 500 kts 307°
2026-05-09 10:13 11.89893 -13.29578 31993 ft 499 kts 307°
2026-05-09 10:14 11.94272 -13.35072 32009 ft 499 kts 307°
2026-05-09 10:14 11.98597 -13.40522 32008 ft 499 kts 307°
2026-05-09 10:15 12.02955 -13.46017 31991 ft 499 kts 307°
2026-05-09 10:15 12.07330 -13.51535 31983 ft 500 kts 307°
2026-05-09 10:16 12.11710 -13.57059 32004 ft 500 kts 307°
2026-05-09 10:16 12.16089 -13.62589 32000 ft 500 kts 307°
2026-05-09 10:17 12.20436 -13.68080 31997 ft 500 kts 307°
2026-05-09 10:17 12.24807 -13.73604 31997 ft 499 kts 307°
2026-05-09 10:18 12.28996 -13.79247 32000 ft 498 kts 303°
2026-05-09 10:18 12.32937 -13.85070 31995 ft 497 kts 302°
2026-05-09 10:19 12.36859 -13.90896 31991 ft 497 kts 302°
2026-05-09 10:19 12.40798 -13.96709 31996 ft 497 kts 303°
2026-05-09 10:20 12.44499 -14.02152 31973 ft 497 kts 303°
2026-05-09 10:20 12.47776 -14.06971 31995 ft 496 kts 303°
2026-05-09 10:21 12.51713 -14.12768 31980 ft 495 kts 303°
2026-05-09 10:21 12.55637 -14.18550 31972 ft 495 kts 303°
2026-05-09 10:22 12.59564 -14.24341 31975 ft 495 kts 303°
2026-05-09 10:22 12.63494 -14.30140 31984 ft 495 kts 303°
2026-05-09 10:23 12.67424 -14.35944 31969 ft 496 kts 303°
2026-05-09 10:23 12.71360 -14.41759 31984 ft 497 kts 303°
2026-05-09 10:24 12.75292 -14.47572 31987 ft 497 kts 302°
2026-05-09 10:24 12.79228 -14.53400 31981 ft 497 kts 302°
2026-05-09 10:25 12.83156 -14.59225 31967 ft 497 kts 302°
2026-05-09 10:25 12.87092 -14.65066 31982 ft 498 kts 302°
2026-05-09 10:26 12.91029 -14.70910 31963 ft 498 kts 302°
2026-05-09 10:26 12.94961 -14.76751 31961 ft 498 kts 302°
2026-05-09 10:27 12.98904 -14.82613 31978 ft 499 kts 302°
2026-05-09 10:27 13.02826 -14.88447 31964 ft 499 kts 302°
2026-05-09 10:28 13.06762 -14.94307 31978 ft 498 kts 302°
2026-05-09 10:28 13.10644 -15.00088 31958 ft 498 kts 302°
2026-05-09 10:29 13.14501 -15.05839 31958 ft 498 kts 302°
2026-05-09 10:29 13.18425 -15.11691 31977 ft 497 kts 302°
2026-05-09 10:30 13.22341 -15.17531 31964 ft 497 kts 302°
2026-05-09 10:30 13.26263 -15.23377 31960 ft 497 kts 302°
2026-05-09 10:31 13.30181 -15.29223 31959 ft 497 kts 302°
2026-05-09 10:31 13.34095 -15.35069 31958 ft 497 kts 302°
2026-05-09 10:32 13.38007 -15.40916 31962 ft 497 kts 302°
2026-05-09 10:32 13.41918 -15.46765 31965 ft 496 kts 302°
2026-05-09 10:33 13.45800 -15.52575 31965 ft 496 kts 302°
2026-05-09 10:33 13.49700 -15.58415 31978 ft 495 kts 302°
2026-05-09 10:34 13.53599 -15.64259 31962 ft 495 kts 302°
2026-05-09 10:34 13.59433 -15.73009 31965 ft 495 kts 302°
2026-05-09 10:35 13.63320 -15.78845 31985 ft 494 kts 302°
2026-05-09 10:35 13.67209 -15.84687 31972 ft 495 kts 302°
2026-05-09 10:36 13.71072 -15.90494 31999 ft 494 kts 301°
2026-05-09 10:36 13.74943 -15.96316 31975 ft 492 kts 301°
2026-05-09 10:37 13.78684 -16.01947 31976 ft 491 kts 301°
2026-05-09 10:37 13.82532 -16.07743 31992 ft 490 kts 301°
2026-05-09 10:38 13.86375 -16.13535 31991 ft 489 kts 301°
2026-05-09 10:38 13.90208 -16.19318 31993 ft 489 kts 301°
2026-05-09 10:39 13.94042 -16.25106 31992 ft 490 kts 301°
2026-05-09 10:39 13.97885 -16.30911 31997 ft 490 kts 301°
2026-05-09 10:40 14.01712 -16.36695 32003 ft 491 kts 301°
2026-05-09 10:40 14.05561 -16.42516 31998 ft 491 kts 301°
2026-05-09 10:41 14.09406 -16.48336 31996 ft 492 kts 301°
2026-05-09 10:41 14.13255 -16.54166 31998 ft 492 kts 301°
2026-05-09 10:42 14.17021 -16.59873 31996 ft 492 kts 301°
2026-05-09 10:42 14.20862 -16.65699 31997 ft 491 kts 301°
2026-05-09 10:43 14.24704 -16.71531 32017 ft 491 kts 301°
2026-05-09 10:43 14.28539 -16.77356 31998 ft 491 kts 301°
2026-05-09 10:44 14.32371 -16.83179 31998 ft 490 kts 301°
2026-05-09 10:44 14.36195 -16.88997 31993 ft 489 kts 301°
2026-05-09 10:46 14.45591 -17.03306 32009 ft 488 kts 301°
2026-05-09 10:46 14.49394 -17.09106 32021 ft 488 kts 301°
2026-05-09 10:47 14.53202 -17.14916 32014 ft 488 kts 301°
2026-05-09 10:47 14.57007 -17.20727 32017 ft 488 kts 301°
2026-05-09 10:48 14.60810 -17.26539 32010 ft 488 kts 301°
2026-05-09 10:48 14.64604 -17.32341 32023 ft 488 kts 301°
2026-05-09 10:49 14.68401 -17.38154 32019 ft 488 kts 301°
2026-05-09 10:49 14.72197 -17.43967 32024 ft 488 kts 301°
2026-05-09 10:50 14.75526 -17.50026 32023 ft 483 kts 290°
2026-05-09 10:50 14.77958 -17.56469 32014 ft 481 kts 288°
2026-05-09 10:51 14.80346 -17.62924 32020 ft 481 kts 288°
2026-05-09 10:51 14.82754 -17.69342 32019 ft 482 kts 288°
2026-05-09 10:52 14.85192 -17.75800 32021 ft 482 kts 288°
2026-05-09 10:52 14.87628 -17.82260 32018 ft 482 kts 288°
2026-05-09 10:53 14.90062 -17.88724 32030 ft 483 kts 288°
2026-05-09 10:53 14.92494 -17.95192 32041 ft 482 kts 288°
2026-05-09 10:54 14.94854 -18.01472 32032 ft 482 kts 288°
2026-05-09 10:54 14.97270 -18.07926 32033 ft 481 kts 288°
2026-05-09 10:55 14.99679 -18.14379 32029 ft 481 kts 288°
2026-05-09 10:55 15.02077 -18.20804 32033 ft 481 kts 288°
2026-05-09 10:56 15.04482 -18.27257 32034 ft 481 kts 288°
2026-05-09 10:56 15.06887 -18.33714 32034 ft 481 kts 288°
2026-05-09 10:57 15.09290 -18.40171 32033 ft 481 kts 288°
2026-05-09 10:57 15.11694 -18.46638 32034 ft 482 kts 288°
2026-05-09 10:58 15.14101 -18.53120 32039 ft 482 kts 288°
2026-05-09 10:58 15.16508 -18.59608 32034 ft 483 kts 288°
2026-05-09 10:59 15.18915 -18.66101 32036 ft 483 kts 288°
2026-05-09 10:59 15.21324 -18.72611 32034 ft 485 kts 288°
2026-05-09 11:00 15.23744 -18.79149 32045 ft 487 kts 288°
2026-05-09 11:00 15.25757 -18.84597 32045 ft 488 kts 288°
2026-05-09 11:01 15.28186 -18.91175 32045 ft 489 kts 288°
2026-05-09 11:01 15.31009 -18.98831 32042 ft 489 kts 288°
2026-05-09 11:02 15.32975 -19.04165 32044 ft 489 kts 288°
2026-05-09 11:02 15.35396 -19.10744 32042 ft 488 kts 288°
2026-05-09 11:03 15.37815 -19.17323 32044 ft 488 kts 289°
2026-05-09 11:03 15.40233 -19.23905 32048 ft 488 kts 289°
2026-05-09 11:04 15.42631 -19.30441 32049 ft 488 kts 288°
2026-05-09 11:04 15.45046 -19.37028 32050 ft 488 kts 288°
2026-05-09 11:05 15.47458 -19.43615 32051 ft 489 kts 289°
2026-05-09 11:05 15.49878 -19.50230 32051 ft 490 kts 289°
2026-05-09 11:06 15.52298 -19.56854 32059 ft 491 kts 288°
2026-05-09 11:06 15.54720 -19.63490 32052 ft 492 kts 288°
2026-05-09 11:07 15.57128 -19.70093 32052 ft 492 kts 289°
2026-05-09 11:07 15.59547 -19.76734 32059 ft 492 kts 288°
2026-05-09 11:08 15.61969 -19.83390 32057 ft 492 kts 289°
2026-05-09 11:08 15.64382 -19.90029 32060 ft 491 kts 289°
2026-05-09 11:09 15.66877 -19.96642 32054 ft 493 kts 294°
2026-05-09 11:09 15.70189 -20.02592 32064 ft 495 kts 302°
2026-05-09 11:10 15.74508 -20.08197 32075 ft 497 kts 308°
2026-05-09 11:10 15.79045 -20.13699 32065 ft 499 kts 309°
2026-05-09 11:11 15.83520 -20.19150 32066 ft 499 kts 308°
2026-05-09 11:11 15.88009 -20.24676 32064 ft 499 kts 308°
2026-05-09 11:12 15.92478 -20.30203 32070 ft 499 kts 308°
2026-05-09 11:12 15.96943 -20.35732 32072 ft 499 kts 308°
2026-05-09 11:13 16.01391 -20.41243 32071 ft 499 kts 308°
2026-05-09 11:13 16.05851 -20.46771 32075 ft 499 kts 308°
2026-05-09 11:14 16.10291 -20.52277 32077 ft 499 kts 307°
2026-05-09 11:14 16.14776 -20.57843 32075 ft 499 kts 307°
2026-05-09 11:15 16.19223 -20.63367 32076 ft 498 kts 307°
2026-05-09 11:15 16.23644 -20.68862 32076 ft 498 kts 307°
2026-05-09 11:16 16.28093 -20.74396 32078 ft 498 kts 307°
2026-05-09 11:16 16.32537 -20.79927 32080 ft 498 kts 307°
2026-05-09 11:17 16.36983 -20.85468 32081 ft 499 kts 308°
2026-05-09 11:17 16.41433 -20.91017 32084 ft 499 kts 308°
2026-05-09 11:18 16.45884 -20.96572 32083 ft 499 kts 307°
2026-05-09 11:18 16.50182 -21.01939 32079 ft 498 kts 308°
2026-05-09 11:19 16.54624 -21.07492 32083 ft 498 kts 307°
2026-05-09 11:19 16.59064 -21.13045 32085 ft 498 kts 307°
2026-05-09 11:20 16.63503 -21.18602 32087 ft 498 kts 308°
2026-05-09 11:20 16.67911 -21.24125 32084 ft 498 kts 308°
2026-05-09 11:21 16.72344 -21.29683 32087 ft 498 kts 308°
2026-05-09 11:21 16.76774 -21.35242 32087 ft 498 kts 308°
2026-05-09 11:22 16.81205 -21.40806 32088 ft 498 kts 307°
2026-05-09 11:22 16.85629 -21.46366 32092 ft 498 kts 307°
2026-05-09 11:23 16.90054 -21.51933 32093 ft 498 kts 308°
2026-05-09 11:23 16.94478 -21.57502 32092 ft 498 kts 308°
2026-05-09 11:24 16.98906 -21.63080 32089 ft 498 kts 308°
2026-05-09 11:24 17.03304 -21.68626 32096 ft 497 kts 308°
2026-05-09 11:25 17.07690 -21.74161 32093 ft 498 kts 308°
2026-05-09 11:25 17.12102 -21.79733 32094 ft 498 kts 308°
2026-05-09 11:26 17.16518 -21.85315 32095 ft 498 kts 308°
2026-05-09 11:26 17.20932 -21.90899 32101 ft 498 kts 307°
2026-05-09 11:27 17.25346 -21.96488 32098 ft 498 kts 307°
2026-05-09 11:27 17.29605 -22.01884 32098 ft 497 kts 307°
2026-05-09 11:28 17.34011 -22.07471 32099 ft 497 kts 307°
2026-05-09 11:28 17.38410 -22.13056 32101 ft 497 kts 307°
2026-05-09 11:29 17.42816 -22.18652 32104 ft 497 kts 307°
2026-05-09 11:29 17.47218 -22.24248 32108 ft 497 kts 307°
2026-05-09 11:30 17.51612 -22.29839 32107 ft 497 kts 307°
2026-05-09 11:30 17.56009 -22.35438 32107 ft 497 kts 307°
2026-05-09 11:31 17.60396 -22.41031 32112 ft 497 kts 307°
2026-05-09 11:31 17.64783 -22.46626 32108 ft 497 kts 307°
2026-05-09 11:32 17.69141 -22.52191 32112 ft 496 kts 307°
2026-05-09 11:32 17.73528 -22.57796 32111 ft 496 kts 307°
2026-05-09 11:33 17.77908 -22.63397 32120 ft 496 kts 307°
2026-05-09 11:33 17.84463 -22.71789 32113 ft 495 kts 307°
2026-05-09 11:34 17.88832 -22.77389 32117 ft 495 kts 307°
2026-05-09 11:34 17.93190 -22.82979 32117 ft 495 kts 307°
2026-05-09 11:35 17.97555 -22.88583 32115 ft 495 kts 307°
2026-05-09 11:35 18.01865 -22.94121 32117 ft 495 kts 307°
2026-05-09 11:36 18.06219 -22.99719 32125 ft 494 kts 307°
2026-05-09 11:36 18.10437 -23.05149 32116 ft 494 kts 307°
2026-05-09 11:37 18.14783 -23.10747 32120 ft 494 kts 307°
2026-05-09 11:37 18.19118 -23.16337 32118 ft 494 kts 307°
2026-05-09 11:38 18.23461 -23.21941 32120 ft 494 kts 307°
2026-05-09 11:38 18.27795 -23.27539 32119 ft 494 kts 307°
2026-05-09 11:39 18.32130 -23.33143 32128 ft 493 kts 307°
2026-05-09 11:40 18.38618 -23.41539 32114 ft 492 kts 307°
2026-05-09 11:40 18.42934 -23.47131 32133 ft 492 kts 307°
2026-05-09 11:41 18.47223 -23.52693 32131 ft 492 kts 307°
2026-05-09 11:41 18.51540 -23.58296 32115 ft 492 kts 307°
2026-05-09 11:42 18.55848 -23.63891 32117 ft 492 kts 307°
2026-05-09 11:42 18.59461 -23.68589 32121 ft 492 kts 307°
2026-05-09 11:43 18.63737 -23.74151 32122 ft 491 kts 307°
2026-05-09 11:43 18.68028 -23.79740 32119 ft 490 kts 307°
2026-05-09 11:44 18.72315 -23.85328 32143 ft 490 kts 307°
2026-05-09 11:44 18.76625 -23.90951 32127 ft 489 kts 307°
2026-05-09 11:45 18.80902 -23.96535 32127 ft 489 kts 307°
2026-05-09 11:45 18.85041 -24.01945 32136 ft 489 kts 307°
2026-05-09 11:46 18.89313 -24.07534 32131 ft 489 kts 306°
2026-05-09 11:46 18.93558 -24.13091 32133 ft 488 kts 306°
2026-05-09 11:47 18.97843 -24.18706 32133 ft 488 kts 306°
2026-05-09 11:47 19.02054 -24.24230 32135 ft 487 kts 306°
2026-05-09 11:48 19.06307 -24.29814 32132 ft 487 kts 306°
2026-05-09 11:48 19.10557 -24.35398 32141 ft 487 kts 306°
2026-05-09 11:49 19.14801 -24.40980 32139 ft 487 kts 306°
2026-05-09 11:49 19.19038 -24.46557 32138 ft 486 kts 306°
2026-05-09 11:50 19.23269 -24.52132 32134 ft 485 kts 306°
2026-05-09 11:50 19.27493 -24.57702 32139 ft 484 kts 306°
2026-05-09 11:51 19.31707 -24.63265 32139 ft 484 kts 306°
2026-05-09 11:51 19.35919 -24.68830 32152 ft 484 kts 306°
2026-05-09 11:52 19.40133 -24.74403 32148 ft 484 kts 306°
2026-05-09 11:52 19.44353 -24.79988 32143 ft 484 kts 306°
2026-05-09 11:53 19.48530 -24.85523 32141 ft 484 kts 306°
2026-05-09 11:53 19.52735 -24.91099 32144 ft 484 kts 306°
2026-05-09 11:54 19.56945 -24.96687 32146 ft 484 kts 306°
2026-05-09 11:54 19.61007 -25.02084 32148 ft 484 kts 306°
2026-05-09 11:55 19.65215 -25.07679 32147 ft 484 kts 306°
2026-05-09 11:56 19.77819 -25.24472 32145 ft 484 kts 306°
2026-05-09 11:57 19.81987 -25.30035 32145 ft 485 kts 306°
2026-05-09 11:57 19.86211 -25.35678 32147 ft 485 kts 306°
2026-05-09 11:58 19.90401 -25.41282 32151 ft 484 kts 306°
2026-05-09 11:58 19.94567 -25.46857 32146 ft 484 kts 306°
2026-05-09 11:59 19.98748 -25.52458 32150 ft 483 kts 306°
2026-05-09 11:59 20.02904 -25.58032 32149 ft 483 kts 306°
2026-05-09 12:00 20.07075 -25.63631 32150 ft 483 kts 306°
2026-05-09 12:00 20.11243 -25.69233 32153 ft 483 kts 306°
2026-05-09 12:01 20.15409 -25.74836 32158 ft 482 kts 306°
2026-05-09 12:01 20.19572 -25.80440 32149 ft 482 kts 306°
2026-05-09 12:02 20.23727 -25.86039 32154 ft 481 kts 306°
2026-05-09 12:02 20.27874 -25.91633 32154 ft 481 kts 306°
2026-05-09 12:03 20.32014 -25.97223 32154 ft 481 kts 306°
2026-05-09 12:03 20.36040 -26.02663 32153 ft 481 kts 306°
2026-05-09 12:04 20.40178 -26.08260 32164 ft 480 kts 306°
2026-05-09 12:04 20.44316 -26.13863 32156 ft 480 kts 306°
2026-05-09 12:05 20.48452 -26.19469 32155 ft 480 kts 306°
2026-05-09 12:05 20.52575 -26.25063 32154 ft 479 kts 306°
2026-05-09 12:06 20.56696 -26.30658 32159 ft 479 kts 306°
2026-05-09 12:06 20.60788 -26.36221 32157 ft 479 kts 306°
2026-05-09 12:07 20.64901 -26.41818 32162 ft 478 kts 306°
2026-05-09 12:07 20.69010 -26.47413 32160 ft 478 kts 306°
2026-05-09 12:08 20.73109 -26.53001 32153 ft 478 kts 306°
2026-05-09 12:08 20.77204 -26.58590 32161 ft 477 kts 306°
2026-05-09 12:09 20.81303 -26.64188 32154 ft 477 kts 306°
2026-05-09 12:09 20.85372 -26.69753 32161 ft 477 kts 306°
2026-05-09 12:10 20.93549 -26.80949 32173 ft 477 kts 305°
2026-05-09 12:11 20.97630 -26.86547 32173 ft 477 kts 305°
2026-05-09 12:11 21.01689 -26.92118 32155 ft 477 kts 305°
2026-05-09 12:12 21.05767 -26.97722 32175 ft 477 kts 305°
2026-05-09 12:12 21.09716 -27.03154 32171 ft 477 kts 305°
2026-05-09 12:13 21.13787 -27.08758 32164 ft 477 kts 304°
2026-05-09 12:13 21.17851 -27.14359 32169 ft 476 kts 304°
2026-05-09 12:14 21.21914 -27.19964 32166 ft 475 kts 304°
2026-05-09 12:14 21.25969 -27.25565 32163 ft 475 kts 304°
2026-05-09 12:15 21.30019 -27.31163 32171 ft 475 kts 304°
2026-05-09 12:15 21.34043 -27.36732 32172 ft 475 kts 304°
2026-05-09 12:16 21.38114 -27.42369 32171 ft 474 kts 304°
2026-05-09 12:16 21.42142 -27.47955 32171 ft 473 kts 304°
2026-05-09 12:17 21.46163 -27.53535 32172 ft 472 kts 304°
2026-05-09 12:17 21.50149 -27.59073 32174 ft 471 kts 304°
2026-05-09 12:18 21.54152 -27.64642 32176 ft 471 kts 304°
2026-05-09 12:18 21.58153 -27.70211 32190 ft 471 kts 304°
2026-05-09 12:19 21.62155 -27.75789 32177 ft 470 kts 304°
2026-05-09 12:19 21.66151 -27.81363 32179 ft 470 kts 304°
2026-05-09 12:20 21.69466 -27.85992 32181 ft 470 kts 304°
2026-05-09 12:20 21.73449 -27.91559 32179 ft 469 kts 303°
2026-05-09 12:21 21.78076 -27.98034 32181 ft 469 kts 303°
2026-05-09 12:21 21.81929 -28.03429 32201 ft 469 kts 303°
2026-05-09 12:22 21.85261 -28.08102 32190 ft 469 kts 303°
2026-05-09 12:22 21.89207 -28.13638 32179 ft 469 kts 303°
2026-05-09 12:23 21.93174 -28.19212 32182 ft 469 kts 303°
2026-05-09 12:23 21.97138 -28.24786 32182 ft 469 kts 303°
2026-05-09 12:24 22.01092 -28.30353 32188 ft 468 kts 303°
2026-05-09 12:24 22.05080 -28.35973 32182 ft 469 kts 303°
2026-05-09 12:25 22.09038 -28.41557 32185 ft 469 kts 303°
2026-05-09 12:25 22.12993 -28.47143 32189 ft 469 kts 303°
2026-05-09 12:26 22.16921 -28.52696 32187 ft 468 kts 303°
2026-05-09 12:26 22.20475 -28.58541 32284 ft 468 kts 297°
2026-05-09 12:26 22.22166 -28.61536 32616 ft 466 kts 297°
2026-05-09 12:27 22.23848 -28.64521 33059 ft 462 kts 297°
2026-05-09 12:27 22.25518 -28.67476 33549 ft 458 kts 297°
2026-05-09 12:27 22.27171 -28.70394 34066 ft 453 kts 297°
2026-05-09 12:27 22.28820 -28.73301 34174 ft 456 kts 297°
2026-05-09 12:28 22.30479 -28.76225 34186 ft 455 kts 297°
2026-05-09 12:28 22.33775 -28.82029 34180 ft 452 kts 297°
2026-05-09 12:29 22.37054 -28.87807 34190 ft 451 kts 297°
2026-05-09 12:29 22.40331 -28.93588 34189 ft 451 kts 297°
2026-05-09 12:30 22.43605 -28.99372 34192 ft 451 kts 296°
2026-05-09 12:30 22.48425 -29.07896 34203 ft 452 kts 296°
2026-05-09 12:31 22.53330 -29.16584 34190 ft 451 kts 296°
2026-05-09 12:32 22.56600 -29.22384 34190 ft 451 kts 296°
2026-05-09 12:32 22.59867 -29.28187 34198 ft 451 kts 296°
2026-05-09 12:33 22.63125 -29.33979 34188 ft 450 kts 296°
2026-05-09 12:33 22.66377 -29.39767 34191 ft 450 kts 296°
2026-05-09 12:34 22.69624 -29.45553 34203 ft 449 kts 296°
2026-05-09 12:34 22.72869 -29.51341 34190 ft 449 kts 296°
2026-05-09 12:35 22.76106 -29.57121 34194 ft 448 kts 296°
2026-05-09 12:35 22.79334 -29.62893 34188 ft 447 kts 296°
2026-05-09 12:36 22.82557 -29.68661 34191 ft 447 kts 296°
2026-05-09 12:36 22.85756 -29.74394 34192 ft 447 kts 296°
2026-05-09 12:37 22.88969 -29.80158 34192 ft 447 kts 296°
2026-05-09 12:37 22.92186 -29.85935 34207 ft 447 kts 295°
2026-05-09 12:38 22.95396 -29.91708 34189 ft 447 kts 295°
2026-05-09 12:38 22.98624 -29.97479 34192 ft 448 kts 297°
2026-05-09 12:39 23.02334 -30.02711 34200 ft 456 kts 306°
2026-05-09 12:39 23.06767 -30.07666 34202 ft 458 kts 307°
2026-05-09 12:40 23.11215 -30.12609 34219 ft 457 kts 307°
2026-05-09 12:40 23.15655 -30.17576 34197 ft 457 kts 307°
2026-05-09 12:41 23.20052 -30.22518 34195 ft 457 kts 307°
2026-05-09 12:41 23.24470 -30.27497 34200 ft 457 kts 307°
2026-05-09 12:42 23.28889 -30.32482 34199 ft 458 kts 306°
2026-05-09 12:42 23.33308 -30.37472 34199 ft 458 kts 306°
2026-05-09 12:43 23.37732 -30.42471 34211 ft 458 kts 306°
2026-05-09 12:43 23.42155 -30.47475 34206 ft 458 kts 306°
2026-05-09 12:44 23.46576 -30.52480 34202 ft 458 kts 306°
2026-05-09 12:44 23.50993 -30.57486 34203 ft 458 kts 306°
2026-05-09 12:45 23.55407 -30.62495 34200 ft 458 kts 306°
2026-05-09 12:45 23.59787 -30.67470 34201 ft 458 kts 306°
2026-05-09 12:46 23.64195 -30.72482 34201 ft 457 kts 306°
2026-05-09 12:46 23.68596 -30.77491 34204 ft 457 kts 306°
2026-05-09 12:47 23.72996 -30.82505 34201 ft 457 kts 306°
2026-05-09 12:47 23.77390 -30.87517 34207 ft 457 kts 306°
2026-05-09 12:48 23.81744 -30.92489 34210 ft 457 kts 306°
2026-05-09 12:48 23.86126 -30.97498 34203 ft 456 kts 305°
2026-05-09 12:49 23.90359 -31.02340 34206 ft 456 kts 305°
2026-05-09 12:49 23.94738 -31.07355 34206 ft 456 kts 305°
2026-05-09 12:50 23.99114 -31.12373 34204 ft 456 kts 305°
2026-05-09 12:50 24.03479 -31.17384 34216 ft 457 kts 305°
2026-05-09 12:51 24.07862 -31.22422 34207 ft 457 kts 305°
2026-05-09 12:51 24.12256 -31.27474 34208 ft 458 kts 305°
2026-05-09 12:52 24.16647 -31.32531 34210 ft 458 kts 305°
2026-05-09 12:52 24.21041 -31.37594 34210 ft 459 kts 305°
2026-05-09 12:53 24.25423 -31.42651 34209 ft 459 kts 305°
2026-05-09 12:53 24.29820 -31.47730 34209 ft 459 kts 305°
2026-05-09 12:54 24.34188 -31.52780 34208 ft 458 kts 305°
2026-05-09 12:54 24.38579 -31.57864 34212 ft 458 kts 305°
2026-05-09 12:55 24.42973 -31.62956 34238 ft 459 kts 304°
2026-05-09 12:55 24.47375 -31.68065 34224 ft 461 kts 304°
2026-05-09 12:56 24.51763 -31.73162 34216 ft 463 kts 304°
2026-05-09 12:56 24.56201 -31.78321 34213 ft 464 kts 304°
2026-05-09 12:57 24.60635 -31.83481 34211 ft 465 kts 304°
2026-05-09 12:57 24.65067 -31.88645 34234 ft 465 kts 304°
2026-05-09 12:58 24.69514 -31.93832 34216 ft 466 kts 304°
2026-05-09 12:58 24.73957 -31.99021 34213 ft 466 kts 304°
2026-05-09 12:59 24.78263 -32.04054 34215 ft 466 kts 304°
2026-05-09 12:59 24.82704 -32.09251 34220 ft 466 kts 304°
2026-05-09 13:00 24.87140 -32.14449 34228 ft 466 kts 304°
2026-05-09 13:00 24.91549 -32.19621 34226 ft 466 kts 304°
2026-05-09 13:01 24.95985 -32.24831 34225 ft 466 kts 304°
2026-05-09 13:01 25.00406 -32.30028 34221 ft 465 kts 304°
2026-05-09 13:02 25.04831 -32.35237 34221 ft 465 kts 304°
2026-05-09 13:02 25.09258 -32.40454 34230 ft 466 kts 304°
2026-05-09 13:03 25.13689 -32.45682 34224 ft 467 kts 304°
2026-05-09 13:03 25.18129 -32.50925 34223 ft 467 kts 304°
2026-05-09 13:04 25.21817 -32.55285 34230 ft 468 kts 304°
2026-05-09 13:04 25.26985 -32.61401 34249 ft 468 kts 304°
2026-05-09 13:05 25.30710 -32.65816 34236 ft 469 kts 304°
2026-05-09 13:05 25.35163 -32.71098 34220 ft 469 kts 304°
2026-05-09 13:06 25.39579 -32.76342 34220 ft 469 kts 304°
2026-05-09 13:06 25.44019 -32.81621 34218 ft 469 kts 304°
2026-05-09 13:07 25.48458 -32.86904 34236 ft 469 kts 304°
2026-05-09 13:07 25.52901 -32.92200 34230 ft 469 kts 304°
2026-05-09 13:08 25.57342 -32.97499 34224 ft 469 kts 304°
2026-05-09 13:08 25.61664 -33.02661 34228 ft 469 kts 304°
2026-05-09 13:09 25.66106 -33.07973 34256 ft 469 kts 304°
2026-05-09 13:09 25.70547 -33.13290 34235 ft 470 kts 304°
2026-05-09 13:10 25.74989 -33.18616 34238 ft 470 kts 304°
2026-05-09 13:10 25.79437 -33.23954 34231 ft 471 kts 304°
2026-05-09 13:11 25.83881 -33.29293 34229 ft 471 kts 304°
2026-05-09 13:11 25.88325 -33.34640 34237 ft 471 kts 304°
2026-05-09 13:12 25.92768 -33.39991 34234 ft 471 kts 304°
2026-05-09 13:12 25.97208 -33.45345 34235 ft 471 kts 304°
2026-05-09 13:13 26.01647 -33.50705 34238 ft 471 kts 304°
2026-05-09 13:13 26.06066 -33.56045 34252 ft 472 kts 304°
2026-05-09 13:14 26.10537 -33.61458 34239 ft 472 kts 304°
2026-05-09 13:16 26.28334 -33.83062 34239 ft 474 kts 304°
2026-05-09 13:16 26.32792 -33.88490 34241 ft 474 kts 304°
2026-05-09 13:17 26.37217 -33.93885 34237 ft 474 kts 304°
2026-05-09 13:17 26.41667 -33.99316 34242 ft 474 kts 304°
2026-05-09 13:18 26.46006 -34.04618 34258 ft 475 kts 304°
2026-05-09 13:18 26.50459 -34.10069 34244 ft 475 kts 303°
2026-05-09 13:19 26.54912 -34.15524 34247 ft 475 kts 303°
2026-05-09 13:19 26.59368 -34.20990 34248 ft 475 kts 303°
2026-05-09 13:20 26.63815 -34.26452 34256 ft 476 kts 303°
2026-05-09 13:20 26.68269 -34.31930 34248 ft 477 kts 303°
2026-05-09 13:21 26.72735 -34.37429 34248 ft 477 kts 303°
2026-05-09 13:21 26.77197 -34.42929 34244 ft 478 kts 303°
2026-05-09 13:22 26.81639 -34.48411 34252 ft 478 kts 303°
2026-05-09 13:22 26.86094 -34.53919 34254 ft 478 kts 304°
2026-05-09 13:23 26.97241 -34.67724 34250 ft 478 kts 304°
2026-05-09 13:24 27.01686 -34.73243 34264 ft 477 kts 304°
2026-05-09 13:24 27.06133 -34.78771 34255 ft 477 kts 304°
2026-05-09 13:25 27.10574 -34.84297 34250 ft 476 kts 304°
2026-05-09 13:26 27.17196 -34.92552 34249 ft 474 kts 304°
2026-05-09 13:26 27.21607 -34.98060 34262 ft 474 kts 305°
2026-05-09 13:27 27.25874 -35.03396 34246 ft 473 kts 306°
2026-05-09 13:27 27.30266 -35.08893 34254 ft 472 kts 306°
2026-05-09 13:28 27.34646 -35.14382 34250 ft 471 kts 306°
2026-05-09 13:28 27.39014 -35.19865 34260 ft 471 kts 306°
2026-05-09 13:29 27.43382 -35.25354 34261 ft 470 kts 307°
2026-05-09 13:29 27.47744 -35.30842 34261 ft 469 kts 307°
2026-05-09 13:30 27.52088 -35.36314 34261 ft 468 kts 307°
2026-05-09 13:30 27.56418 -35.41776 34272 ft 467 kts 307°
2026-05-09 13:31 27.60714 -35.47202 34266 ft 467 kts 307°
2026-05-09 13:31 27.65041 -35.52675 34271 ft 467 kts 308°
2026-05-09 13:32 27.69369 -35.58156 34264 ft 467 kts 308°
2026-05-09 13:32 27.75858 -35.66387 34268 ft 469 kts 308°
2026-05-09 13:33 27.80198 -35.71901 34274 ft 472 kts 308°
2026-05-09 13:33 27.84572 -35.77465 34279 ft 474 kts 308°
2026-05-09 13:34 27.88945 -35.83034 34271 ft 475 kts 308°
2026-05-09 13:34 27.93333 -35.88630 34263 ft 476 kts 308°
2026-05-09 13:35 27.97724 -35.94237 34275 ft 476 kts 308°
2026-05-09 13:35 28.02108 -35.99844 34271 ft 477 kts 308°
2026-05-09 13:36 28.06386 -36.05321 34270 ft 476 kts 308°
2026-05-09 13:36 28.10774 -36.10947 34268 ft 476 kts 308°
2026-05-09 13:37 28.15126 -36.16535 34272 ft 475 kts 308°
2026-05-09 13:37 28.19499 -36.22157 34271 ft 475 kts 308°
2026-05-09 13:38 28.23872 -36.27785 34275 ft 474 kts 308°
2026-05-09 13:38 28.28205 -36.33373 34267 ft 475 kts 308°
2026-05-09 13:39 28.32563 -36.38998 34278 ft 476 kts 308°
2026-05-09 13:39 28.36931 -36.44643 34275 ft 476 kts 308°
2026-05-09 13:40 28.41307 -36.50307 34275 ft 477 kts 308°
2026-05-09 13:40 28.45685 -36.55982 34279 ft 477 kts 309°
2026-05-09 13:41 28.50064 -36.61665 34279 ft 478 kts 309°
2026-05-09 13:41 28.54447 -36.67360 34282 ft 478 kts 309°
2026-05-09 13:42 28.58825 -36.73058 34283 ft 478 kts 309°
2026-05-09 13:42 28.63196 -36.78754 34281 ft 478 kts 309°
2026-05-09 13:43 28.66830 -36.83496 34282 ft 478 kts 309°
2026-05-09 13:43 28.71195 -36.89199 34282 ft 478 kts 309°
2026-05-09 13:44 28.75560 -36.94909 34284 ft 477 kts 309°
2026-05-09 13:44 28.79805 -37.00472 34285 ft 477 kts 309°
2026-05-09 13:45 28.84164 -37.06189 34285 ft 477 kts 309°
2026-05-09 13:45 28.88518 -37.11909 34286 ft 477 kts 309°
2026-05-09 13:46 28.92871 -37.17637 34288 ft 477 kts 309°
2026-05-09 13:46 28.97220 -37.23365 34288 ft 477 kts 309°
2026-05-09 13:47 29.01535 -37.29058 34289 ft 477 kts 309°
2026-05-09 13:47 29.05881 -37.34799 34289 ft 477 kts 309°
2026-05-09 13:48 29.10252 -37.40582 34292 ft 477 kts 309°
2026-05-09 13:48 29.14587 -37.46325 34290 ft 477 kts 309°
2026-05-09 13:49 29.18890 -37.52033 34289 ft 476 kts 309°
2026-05-09 13:49 29.23209 -37.57772 34288 ft 475 kts 309°
2026-05-09 13:50 29.27523 -37.63510 34294 ft 475 kts 309°
2026-05-09 13:50 29.31829 -37.69248 34294 ft 474 kts 309°
2026-05-09 13:51 29.36132 -37.74988 34292 ft 474 kts 309°
2026-05-09 13:51 29.40428 -37.80729 34294 ft 474 kts 309°
2026-05-09 13:52 29.44721 -37.86473 34293 ft 474 kts 309°
2026-05-09 13:52 29.49017 -37.92229 34289 ft 474 kts 309°
2026-05-09 13:53 29.53308 -37.97987 34290 ft 475 kts 309°
2026-05-09 13:53 29.57479 -38.03590 34296 ft 475 kts 310°
2026-05-09 13:54 29.61765 -38.09357 34295 ft 475 kts 309°
2026-05-09 13:54 29.66051 -38.15133 34297 ft 475 kts 309°
2026-05-09 13:55 29.70306 -38.20875 34299 ft 474 kts 310°
2026-05-09 13:55 29.74593 -38.26668 34299 ft 474 kts 310°
2026-05-09 13:56 29.78870 -38.32456 34305 ft 474 kts 309°
2026-05-09 13:56 29.83148 -38.38254 34305 ft 474 kts 309°
2026-05-09 13:57 29.87415 -38.44046 34298 ft 474 kts 310°
2026-05-09 13:57 29.91656 -38.49811 34302 ft 474 kts 310°
2026-05-09 13:58 29.95911 -38.55602 34304 ft 474 kts 310°
2026-05-09 13:58 30.00164 -38.61399 34305 ft 473 kts 310°
2026-05-09 13:59 30.04412 -38.67199 34304 ft 473 kts 310°
2026-05-09 13:59 30.08655 -38.72999 34303 ft 472 kts 310°
2026-05-09 14:00 30.11485 -38.76874 34305 ft 472 kts 310°
2026-05-09 14:00 30.17117 -38.84593 34307 ft 471 kts 310°
2026-05-09 14:01 30.21339 -38.90391 34307 ft 470 kts 310°
2026-05-09 14:01 30.25544 -38.96174 34305 ft 470 kts 310°
2026-05-09 14:02 30.29641 -39.01816 34307 ft 469 kts 310°
2026-05-09 14:02 30.33835 -39.07599 34311 ft 469 kts 310°
2026-05-09 14:03 30.38027 -39.13389 34302 ft 468 kts 310°
2026-05-09 14:03 30.42185 -39.19141 34308 ft 468 kts 310°
2026-05-09 14:04 30.46368 -39.24934 34307 ft 469 kts 310°
2026-05-09 14:04 30.50551 -39.30737 34309 ft 469 kts 310°
2026-05-09 14:05 30.54739 -39.36555 34314 ft 470 kts 310°
2026-05-09 14:05 30.58932 -39.42390 34310 ft 470 kts 310°
2026-05-09 14:06 30.63122 -39.48228 34319 ft 471 kts 310°
2026-05-09 14:06 30.67291 -39.54046 34314 ft 471 kts 309°
2026-05-09 14:07 30.71478 -39.59897 34307 ft 470 kts 310°
2026-05-09 14:07 30.75649 -39.65736 34315 ft 470 kts 310°
2026-05-09 14:08 30.79822 -39.71584 34318 ft 469 kts 310°
2026-05-09 14:08 30.83982 -39.77425 34313 ft 468 kts 309°
2026-05-09 14:09 30.88129 -39.83256 34312 ft 467 kts 310°
2026-05-09 14:09 30.92267 -39.89084 34322 ft 466 kts 310°
2026-05-09 14:10 30.98430 -39.97778 34317 ft 466 kts 310°
2026-05-09 14:11 31.02398 -40.03437 34316 ft 466 kts 309°
2026-05-09 14:11 31.06435 -40.09353 34324 ft 466 kts 308°
2026-05-09 14:12 31.10462 -40.15284 34321 ft 467 kts 308°
2026-05-09 14:12 31.14500 -40.21225 34321 ft 467 kts 308°
2026-05-09 14:13 31.18545 -40.27172 34308 ft 468 kts 309°
2026-05-09 14:15 31.34721 -40.51034 34323 ft 468 kts 309°
2026-05-09 14:15 31.38765 -40.57021 34317 ft 468 kts 309°
2026-05-09 14:16 31.42795 -40.62999 34318 ft 468 kts 309°
2026-05-09 14:16 31.46794 -40.68940 34319 ft 467 kts 309°
2026-05-09 14:17 31.50817 -40.74927 34317 ft 467 kts 309°
2026-05-09 14:17 31.54831 -40.80907 34321 ft 467 kts 309°
2026-05-09 14:18 31.58839 -40.86889 34317 ft 466 kts 309°
2026-05-09 14:18 31.62844 -40.92876 34317 ft 467 kts 310°
2026-05-09 14:19 31.66853 -40.98879 34320 ft 467 kts 310°
2026-05-09 14:19 31.70723 -41.04680 34319 ft 468 kts 310°
2026-05-09 14:20 31.74742 -41.10715 34315 ft 469 kts 310°
2026-05-09 14:20 31.78762 -41.16763 34323 ft 469 kts 310°
2026-05-09 14:21 31.84794 -41.25853 34320 ft 470 kts 310°
2026-05-09 14:21 31.88815 -41.31924 34316 ft 471 kts 311°
2026-05-09 14:22 31.92846 -41.38022 34315 ft 472 kts 311°
2026-05-09 14:22 31.96873 -41.44122 34318 ft 472 kts 311°
2026-05-09 14:23 32.00900 -41.50232 34311 ft 473 kts 311°
2026-05-09 14:23 32.04945 -41.56380 34309 ft 474 kts 311°
2026-05-09 14:24 32.08957 -41.62489 34311 ft 474 kts 311°
2026-05-09 14:24 32.13026 -41.68693 34309 ft 475 kts 312°
2026-05-09 14:25 32.17067 -41.74864 34320 ft 475 kts 312°
2026-05-09 14:25 32.21085 -41.81010 34304 ft 475 kts 312°
2026-05-09 14:26 32.25121 -41.87194 34306 ft 475 kts 312°
2026-05-09 14:26 32.29153 -41.93383 34313 ft 475 kts 312°
2026-05-09 14:27 32.32507 -41.98537 34312 ft 475 kts 312°
2026-05-09 14:27 32.36412 -42.04548 34301 ft 475 kts 312°
2026-05-09 14:28 32.40437 -42.10754 34324 ft 475 kts 312°
2026-05-09 14:28 32.44454 -42.16958 34303 ft 475 kts 312°
2026-05-09 14:29 32.48467 -42.23165 34317 ft 474 kts 312°
2026-05-09 14:29 32.52474 -42.29373 34312 ft 474 kts 312°
2026-05-09 14:30 32.56477 -42.35585 34314 ft 474 kts 312°
2026-05-09 14:30 32.60478 -42.41806 34302 ft 474 kts 312°
2026-05-09 14:31 32.64451 -42.47991 34303 ft 474 kts 312°
2026-05-09 14:31 32.68442 -42.54217 34310 ft 474 kts 312°
2026-05-09 14:32 32.72433 -42.60452 34308 ft 475 kts 312°
2026-05-09 14:32 32.76433 -42.66711 34300 ft 475 kts 312°
2026-05-09 14:33 32.80426 -42.72970 34307 ft 476 kts 312°
2026-05-09 14:33 32.84422 -42.79244 34304 ft 476 kts 312°
2026-05-09 14:34 32.88417 -42.85528 34295 ft 476 kts 312°
2026-05-09 14:34 32.92414 -42.91825 34307 ft 476 kts 312°
2026-05-09 14:35 32.94370 -42.94911 34308 ft 477 kts 312°
2026-05-09 14:35 32.97813 -43.00348 34295 ft 477 kts 312°
2026-05-09 14:36 33.01794 -43.06646 34295 ft 476 kts 311°
2026-05-09 14:36 33.05772 -43.12951 34304 ft 476 kts 311°
2026-05-09 14:37 33.09749 -43.19263 34299 ft 475 kts 311°
2026-05-09 14:37 33.13717 -43.25570 34302 ft 475 kts 311°
2026-05-09 14:38 33.17674 -43.31873 34297 ft 475 kts 311°
2026-05-09 14:38 33.21629 -43.38182 34300 ft 474 kts 311°
2026-05-09 14:39 33.25561 -43.44464 34291 ft 474 kts 311°
2026-05-09 14:39 33.29509 -43.50784 34299 ft 474 kts 311°
2026-05-09 14:40 33.33450 -43.57104 34301 ft 474 kts 311°
2026-05-09 14:40 33.37383 -43.63422 34286 ft 473 kts 310°
2026-05-09 14:41 33.41315 -43.69749 34310 ft 473 kts 310°
2026-05-09 14:41 33.45237 -43.76071 34307 ft 472 kts 310°
2026-05-09 14:42 33.49155 -43.82397 34291 ft 472 kts 310°
2026-05-09 14:42 33.53064 -43.88718 34297 ft 471 kts 310°
2026-05-09 14:43 33.56963 -43.95035 34300 ft 471 kts 310°
2026-05-09 14:43 33.60753 -44.01186 34291 ft 470 kts 310°
2026-05-09 14:44 33.64613 -44.07461 34287 ft 470 kts 310°
2026-05-09 14:44 33.68510 -44.13807 34292 ft 469 kts 310°
2026-05-09 14:45 33.72383 -44.20126 34299 ft 469 kts 309°
2026-05-09 14:45 33.76255 -44.26453 34289 ft 470 kts 309°
2026-05-09 14:46 33.80121 -44.32781 34293 ft 470 kts 309°
2026-05-09 14:46 33.83986 -44.39120 34294 ft 470 kts 309°
2026-05-09 14:47 33.87850 -44.45467 34290 ft 470 kts 309°
2026-05-09 14:47 33.91710 -44.51818 34293 ft 470 kts 309°
2026-05-09 14:48 33.95564 -44.58173 34291 ft 470 kts 309°
2026-05-09 14:48 33.99389 -44.64488 34288 ft 470 kts 308°
2026-05-09 14:49 34.03190 -44.70776 34289 ft 469 kts 308°
2026-05-09 14:49 34.07059 -44.77188 34288 ft 469 kts 308°
2026-05-09 14:50 34.10894 -44.83553 34282 ft 469 kts 308°
2026-05-09 14:50 34.14706 -44.89893 34287 ft 469 kts 308°
2026-05-09 14:51 34.18535 -44.96272 34287 ft 469 kts 308°
2026-05-09 14:51 34.22252 -45.02475 34289 ft 469 kts 307°
2026-05-09 14:52 34.26075 -45.08867 34281 ft 470 kts 307°
2026-05-09 14:52 34.29899 -45.15271 34283 ft 469 kts 307°
2026-05-09 14:53 34.33719 -45.21680 34281 ft 470 kts 307°
2026-05-09 14:53 34.37542 -45.28105 34277 ft 470 kts 307°
2026-05-09 14:54 34.41361 -45.34534 34282 ft 470 kts 307°
2026-05-09 14:54 34.45179 -45.40975 34271 ft 470 kts 306°
2026-05-09 14:55 34.48966 -45.47374 34279 ft 470 kts 306°
2026-05-09 14:55 34.52779 -45.53829 34276 ft 470 kts 306°
2026-05-09 14:56 34.56582 -45.60278 34272 ft 470 kts 306°
2026-05-09 14:56 34.60391 -45.66749 34273 ft 470 kts 306°
2026-05-09 14:57 34.64189 -45.73215 34272 ft 471 kts 306°
2026-05-09 14:57 34.67990 -45.79695 34264 ft 471 kts 306°
2026-05-09 14:58 34.71786 -45.86180 34269 ft 471 kts 306°
2026-05-09 14:58 34.75584 -45.92680 34266 ft 472 kts 306°
2026-05-09 14:59 34.79356 -45.99147 34263 ft 472 kts 305°
2026-05-09 14:59 34.83082 -46.05547 34266 ft 473 kts 305°
2026-05-09 15:00 34.86866 -46.12058 34268 ft 474 kts 305°
2026-05-09 15:00 34.90675 -46.18624 34263 ft 475 kts 305°
2026-05-09 15:01 34.96393 -46.28504 34258 ft 476 kts 304°
2026-05-09 15:02 35.00197 -46.35093 34256 ft 476 kts 304°
2026-05-09 15:02 35.04008 -46.41706 34254 ft 476 kts 304°
2026-05-09 15:03 35.07814 -46.48323 34252 ft 476 kts 304°
2026-05-09 15:03 35.11621 -46.54953 34255 ft 477 kts 304°
2026-05-09 15:04 35.15429 -46.61597 34247 ft 477 kts 304°
2026-05-09 15:06 35.30621 -46.88234 34244 ft 478 kts 303°
2026-05-09 15:06 35.34420 -46.94926 34245 ft 478 kts 303°
2026-05-09 15:07 35.38116 -47.01449 34247 ft 478 kts 303°
2026-05-09 15:07 35.41905 -47.08150 34241 ft 477 kts 303°
2026-05-09 15:08 35.45683 -47.14843 34242 ft 477 kts 303°
2026-05-09 15:08 35.51343 -47.24896 34242 ft 477 kts 302°
2026-05-09 15:10 35.65758 -47.50626 34232 ft 477 kts 302°
2026-05-09 15:11 35.69505 -47.57347 34232 ft 476 kts 302°
2026-05-09 15:11 35.73247 -47.64071 34232 ft 475 kts 301°
2026-05-09 15:12 35.76975 -47.70782 34224 ft 474 kts 301°
2026-05-09 15:12 35.80694 -47.77490 34227 ft 473 kts 301°
2026-05-09 15:13 35.84406 -47.84200 34225 ft 474 kts 301°
2026-05-09 15:13 35.88123 -47.90933 34221 ft 475 kts 301°
2026-05-09 15:14 35.91846 -47.97688 34222 ft 477 kts 301°
2026-05-09 15:14 35.95479 -48.04292 34226 ft 479 kts 301°
2026-05-09 15:15 35.99223 -48.11113 34217 ft 481 kts 301°
2026-05-09 15:15 36.02946 -48.17908 34217 ft 482 kts 301°
2026-05-09 15:16 36.06727 -48.24823 34214 ft 483 kts 301°
2026-05-09 15:16 36.10471 -48.31684 34218 ft 485 kts 301°
2026-05-09 15:17 36.14245 -48.38613 34212 ft 486 kts 301°
2026-05-09 15:17 36.18018 -48.45554 34218 ft 487 kts 300°
2026-05-09 15:18 36.21806 -48.52538 34223 ft 489 kts 300°
2026-05-09 15:18 36.25606 -48.59559 34215 ft 491 kts 300°
2026-05-09 15:19 36.29409 -48.66599 34202 ft 492 kts 300°
2026-05-09 15:19 36.33218 -48.73662 34220 ft 493 kts 300°
2026-05-09 15:20 36.38928 -48.84282 34196 ft 493 kts 300°
2026-05-09 15:21 36.42723 -48.91357 34191 ft 492 kts 300°
2026-05-09 15:21 36.46513 -48.98438 34211 ft 491 kts 300°
2026-05-09 15:22 36.50196 -49.05334 34195 ft 491 kts 300°
2026-05-09 15:22 36.53968 -49.12412 34212 ft 491 kts 299°
2026-05-09 15:23 36.57734 -49.19493 34199 ft 492 kts 299°
2026-05-09 15:23 36.61511 -49.26610 34193 ft 492 kts 299°
2026-05-09 15:24 36.65279 -49.33724 34199 ft 493 kts 299°
2026-05-09 15:24 36.69050 -49.40860 34192 ft 494 kts 299°
2026-05-09 15:25 36.72829 -49.48026 34191 ft 495 kts 299°
2026-05-09 15:25 36.76607 -49.55204 34198 ft 496 kts 298°
2026-05-09 15:26 36.82269 -49.65990 34190 ft 498 kts 298°
2026-05-09 15:26 36.86064 -49.73239 34185 ft 499 kts 298°
2026-05-09 15:27 36.89860 -49.80506 34189 ft 500 kts 298°
2026-05-09 15:27 36.93659 -49.87795 34186 ft 501 kts 298°
2026-05-09 15:28 36.97468 -49.95119 34185 ft 502 kts 298°
2026-05-09 15:28 37.01121 -50.02203 34190 ft 501 kts 296°
2026-05-09 15:29 37.04660 -50.09709 34187 ft 500 kts 295°
2026-05-09 15:29 37.08099 -50.17268 34187 ft 499 kts 295°
2026-05-09 15:30 37.11555 -50.24812 34176 ft 499 kts 294°
2026-05-09 15:30 37.15030 -50.32337 34180 ft 498 kts 295°
2026-05-09 15:31 37.18506 -50.39853 34186 ft 497 kts 295°
2026-05-09 15:31 37.21972 -50.47364 34191 ft 496 kts 294°
2026-05-09 15:32 37.25423 -50.54862 34181 ft 495 kts 294°
2026-05-09 15:32 37.28841 -50.62312 34172 ft 495 kts 294°
2026-05-09 15:33 37.32266 -50.69794 34183 ft 494 kts 294°
2026-05-09 15:33 37.35683 -50.77274 34173 ft 493 kts 294°
2026-05-09 15:34 37.39089 -50.84748 34169 ft 492 kts 294°
2026-05-09 15:34 37.42488 -50.92225 34177 ft 492 kts 294°
2026-05-09 15:35 37.45881 -50.99702 34169 ft 492 kts 294°
2026-05-09 15:35 37.49179 -51.06987 34165 ft 491 kts 294°
2026-05-09 15:36 37.52556 -51.14465 34167 ft 491 kts 294°
2026-05-09 15:36 37.55926 -51.21945 34166 ft 491 kts 294°
2026-05-09 15:37 37.59269 -51.29382 34167 ft 491 kts 294°
2026-05-09 15:37 37.62631 -51.36882 34172 ft 491 kts 294°
2026-05-09 15:38 37.65992 -51.44392 34160 ft 491 kts 294°
2026-05-09 15:38 37.69348 -51.51907 34159 ft 491 kts 294°
2026-05-09 15:39 37.72690 -51.59407 34176 ft 490 kts 294°
2026-05-09 15:39 37.76015 -51.66888 34161 ft 487 kts 294°
2026-05-09 15:40 37.79327 -51.74357 34158 ft 486 kts 294°
2026-05-09 15:40 37.82620 -51.81803 34187 ft 484 kts 294°
2026-05-09 15:41 37.85892 -51.89217 34160 ft 481 kts 294°
2026-05-09 15:41 37.89146 -51.96607 34157 ft 480 kts 294°
2026-05-09 15:42 37.92289 -52.03763 34163 ft 479 kts 294°
2026-05-09 15:42 37.95519 -52.11134 34173 ft 478 kts 294°
2026-05-09 15:43 37.98740 -52.18501 34168 ft 476 kts 294°
2026-05-09 15:43 38.01937 -52.25828 34165 ft 475 kts 294°
2026-05-09 15:44 38.05127 -52.33157 34179 ft 474 kts 294°
2026-05-09 15:44 38.08282 -52.40421 34163 ft 472 kts 294°
2026-05-09 15:45 38.11438 -52.47705 34169 ft 470 kts 294°
2026-05-09 15:45 38.14584 -52.54982 34200 ft 469 kts 294°
2026-05-09 15:46 38.17719 -52.62252 34174 ft 468 kts 294°
2026-05-09 15:46 38.20842 -52.69510 34175 ft 467 kts 294°
2026-05-09 15:47 38.23955 -52.76761 34199 ft 466 kts 294°
2026-05-09 15:47 38.27054 -52.83996 34173 ft 465 kts 294°
2026-05-09 15:48 38.30147 -52.91233 34179 ft 464 kts 294°
2026-05-09 15:48 38.33226 -52.98454 34179 ft 464 kts 294°
2026-05-09 15:49 38.36216 -53.05483 34181 ft 464 kts 294°
2026-05-09 15:49 38.39285 -53.12711 34187 ft 463 kts 294°
2026-05-09 15:50 38.42344 -53.19935 34188 ft 463 kts 294°
2026-05-09 15:50 38.44882 -53.25940 34207 ft 462 kts 294°
2026-05-09 15:51 38.47926 -53.33159 34191 ft 462 kts 294°
2026-05-09 15:51 38.50964 -53.40378 34192 ft 461 kts 294°
2026-05-09 15:52 38.55506 -53.51205 34194 ft 460 kts 294°
2026-05-09 15:53 38.58523 -53.58416 34193 ft 460 kts 294°
2026-05-09 15:53 38.61514 -53.65584 34197 ft 460 kts 294°
2026-05-09 15:54 38.64523 -53.72810 34199 ft 460 kts 294°
2026-05-09 15:54 38.67525 -53.80035 34202 ft 459 kts 294°
2026-05-09 15:55 38.70508 -53.87230 34200 ft 456 kts 294°
2026-05-09 15:55 38.73470 -53.94390 34201 ft 454 kts 294°
2026-05-09 15:56 38.76263 -54.01160 34226 ft 452 kts 294°
2026-05-09 15:56 38.79188 -54.08266 34209 ft 449 kts 294°
2026-05-09 15:57 38.82091 -54.15331 34208 ft 447 kts 294°
2026-05-09 15:57 38.84982 -54.22389 34281 ft 449 kts 294°
2026-05-09 15:57 38.86434 -54.25942 34622 ft 448 kts 294°
2026-05-09 15:58 38.87871 -54.29455 35129 ft 442 kts 293°
2026-05-09 15:58 38.89293 -54.32935 35533 ft 440 kts 293°
2026-05-09 15:58 38.90713 -54.36417 35834 ft 440 kts 293°
2026-05-09 15:58 38.92132 -54.39901 36067 ft 441 kts 293°
2026-05-09 15:59 38.93555 -54.43404 36133 ft 443 kts 293°
2026-05-09 15:59 38.96397 -54.50404 36250 ft 440 kts 293°
2026-05-09 16:00 38.99190 -54.57290 36217 ft 433 kts 293°
2026-05-09 16:00 39.01946 -54.64103 36214 ft 429 kts 292°
2026-05-09 16:01 39.04704 -54.70949 36229 ft 434 kts 292°
2026-05-09 16:01 39.07502 -54.77911 36245 ft 438 kts 292°
2026-05-09 16:02 39.10289 -54.84845 36227 ft 434 kts 292°
2026-05-09 16:02 39.14424 -54.95163 36214 ft 430 kts 292°
2026-05-09 16:03 39.17082 -55.01820 36262 ft 428 kts 292°
2026-05-09 16:03 39.19786 -55.08608 36234 ft 428 kts 292°
2026-05-09 16:04 39.22506 -55.15453 36229 ft 428 kts 292°
2026-05-09 16:04 39.25223 -55.22304 36227 ft 429 kts 292°
2026-05-09 16:05 39.27939 -55.29165 36246 ft 430 kts 292°
2026-05-09 16:05 39.30657 -55.36049 36225 ft 430 kts 292°
2026-05-09 16:06 39.33365 -55.42920 36227 ft 429 kts 292°
2026-05-09 16:06 39.36071 -55.49806 36228 ft 429 kts 292°
2026-05-09 16:07 39.38752 -55.56641 36239 ft 429 kts 292°
2026-05-09 16:07 39.41444 -55.63518 36235 ft 428 kts 292°
2026-05-09 16:08 39.44123 -55.70381 36222 ft 427 kts 292°
2026-05-09 16:08 39.46798 -55.77248 36227 ft 426 kts 291°
2026-05-09 16:09 39.49462 -55.84103 36233 ft 426 kts 291°
2026-05-09 16:09 39.52119 -55.90954 36230 ft 425 kts 291°
2026-05-09 16:10 39.54773 -55.97815 36231 ft 425 kts 291°
2026-05-09 16:10 39.57349 -56.04488 36237 ft 425 kts 291°
2026-05-09 16:11 39.59989 -56.11343 36234 ft 425 kts 291°
2026-05-09 16:11 39.62626 -56.18208 36234 ft 425 kts 291°
2026-05-09 16:12 39.65261 -56.25081 36235 ft 426 kts 291°
2026-05-09 16:12 39.67896 -56.31968 36278 ft 426 kts 291°
2026-05-09 16:13 39.70525 -56.38858 36246 ft 425 kts 291°
2026-05-09 16:13 39.73128 -56.45693 36235 ft 424 kts 291°
2026-05-09 16:14 39.75737 -56.52560 36242 ft 423 kts 291°
2026-05-09 16:14 39.78335 -56.59415 36276 ft 422 kts 291°
2026-05-09 16:15 39.80929 -56.66276 36252 ft 422 kts 291°
2026-05-09 16:15 39.83511 -56.73119 36240 ft 421 kts 291°
2026-05-09 16:16 39.86080 -56.79944 36241 ft 420 kts 291°
2026-05-09 16:16 39.88644 -56.86773 36247 ft 420 kts 291°
2026-05-09 16:17 39.91202 -56.93601 36251 ft 419 kts 291°
2026-05-09 16:17 39.93684 -57.00243 36240 ft 418 kts 290°
2026-05-09 16:18 39.96228 -57.07063 36244 ft 418 kts 290°
2026-05-09 16:18 39.98764 -57.13880 36269 ft 418 kts 290°
2026-05-09 16:19 40.01273 -57.20639 36254 ft 418 kts 290°
2026-05-09 16:19 40.03816 -57.27506 36246 ft 417 kts 290°
2026-05-09 16:20 40.06321 -57.34285 36250 ft 417 kts 290°
2026-05-09 16:20 40.08838 -57.41113 36265 ft 417 kts 290°
2026-05-09 16:21 40.11343 -57.47924 36254 ft 416 kts 290°
2026-05-09 16:21 40.13842 -57.54733 36255 ft 415 kts 290°
2026-05-09 16:22 40.16333 -57.61538 36258 ft 414 kts 290°
2026-05-09 16:22 40.18815 -57.68336 36265 ft 414 kts 290°
2026-05-09 16:23 40.21293 -57.75135 36255 ft 413 kts 290°
2026-05-09 16:23 40.23761 -57.81924 36261 ft 413 kts 290°
2026-05-09 16:24 40.26209 -57.88674 36272 ft 413 kts 290°
2026-05-09 16:24 40.28673 -57.95488 36262 ft 414 kts 290°
2026-05-09 16:25 40.30653 -58.00971 36259 ft 414 kts 290°
2026-05-09 16:25 40.33528 -58.08952 36249 ft 414 kts 290°
2026-05-09 16:26 40.35986 -58.15794 36253 ft 414 kts 290°
2026-05-09 16:26 40.38439 -58.22638 36263 ft 415 kts 290°
2026-05-09 16:27 40.40888 -58.29485 36253 ft 415 kts 290°
2026-05-09 16:27 40.43335 -58.36346 36250 ft 415 kts 290°
2026-05-09 16:28 40.45775 -58.43201 36246 ft 415 kts 290°
2026-05-09 16:28 40.48218 -58.50083 36250 ft 415 kts 290°
2026-05-09 16:29 40.50640 -58.56919 36235 ft 415 kts 290°
2026-05-09 16:29 40.53089 -58.63851 36236 ft 415 kts 290°
2026-05-09 16:30 40.55500 -58.70690 36253 ft 415 kts 290°
2026-05-09 16:30 40.57923 -58.77580 36249 ft 415 kts 290°
2026-05-09 16:31 40.60340 -58.84472 36240 ft 415 kts 290°
2026-05-09 16:31 40.62754 -58.91368 36239 ft 415 kts 290°
2026-05-09 16:32 40.64757 -58.97107 36254 ft 415 kts 290°
2026-05-09 16:32 40.67505 -59.04994 36253 ft 415 kts 290°
2026-05-09 16:33 40.69906 -59.11906 36245 ft 415 kts 290°
2026-05-09 16:33 40.72302 -59.18817 36244 ft 414 kts 289°
2026-05-09 16:34 40.74291 -59.24569 36245 ft 414 kts 289°
2026-05-09 16:34 40.76678 -59.31487 36250 ft 414 kts 289°
2026-05-09 16:35 40.79062 -59.38414 36246 ft 414 kts 289°
2026-05-09 16:35 40.81441 -59.45344 36242 ft 414 kts 289°
2026-05-09 16:36 40.86182 -59.59203 36246 ft 414 kts 289°
2026-05-09 16:37 40.88547 -59.66143 36238 ft 414 kts 289°
2026-05-09 16:37 40.90907 -59.73086 36236 ft 414 kts 289°
2026-05-09 16:38 40.93264 -59.80036 36236 ft 414 kts 289°
2026-05-09 16:38 40.95615 -59.86986 36238 ft 414 kts 289°
2026-05-09 16:39 40.97934 -59.93894 36233 ft 412 kts 287°
2026-05-09 16:39 40.99505 -60.00904 36240 ft 407 kts 279°
2026-05-09 16:40 41.00427 -60.08248 36235 ft 405 kts 272°